User: anonymous   Login
Location: Glendale
(37.4556°N, 88.6714°W)
Time: 13:42:39
(UTC+00:00)
Language:

STARLINK-41 - Orbit

View from above orbital plane
View from above orbital plane
View from above satellite
View from above satellite

Ground track
Ground track

The orbit data is extracted from the following two-line orbital elements,

1 44277C 19029AU  20053.52366397  .00517150  00000-0  93526-2 0   533
2 44277  53.0077  10.5444 0004812 280.8675 349.2747 15.48553459    13
Epoch (UTC): 22 February 2020 12:34:04
Eccentricity: 0.0004812
inclination: 53.0077°
perigee height: 417 km
apogee height: 424 km
right ascension of ascending node: 10.5444°
argument of perigee: 280.8675°
revolutions per day: 15.48553459
mean anomaly at epoch: 349.2747°
orbit number at epoch: 1

The dashed part of the orbit path shows where the satellite is in the earth's shadow,  

DLR